Vancouver, British Columbia

11:20 PM PDT on June 26, 2017 (GMT -0700)
Vancouver International Airport

Weather History for CYVR - March, 2014

Change the Weather History Date:

Thursday, March 6, 2014

  Actual Average Record
Temperature  
Mean Temperature 46 °F -  
Max Temperature 50 °F 51 °F 60 °F (2007)
Min Temperature 42 °F 38 °F 28 °F (2002)
Degree Days  
Heating Degree Days 19    
Moisture  
Dew Point 46 °F    
Average Humidity 90    
Maximum Humidity 94    
Minimum Humidity 77    
Precipitation  
Precipitation 0.31 in 0.13 in - ()
Sea Level Pressure  
Sea Level Pressure 29.57 in    
Wind  
Wind Speed 12 mph ()    
Max Wind Speed 20 mph    
Max Gust Speed 23 mph    
Visibility 10.5 miles    
Events Rain    
Averages and records for this station are not official NWS values.
T = Trace of Precipitation, MM = Missing Value Source: Averaged Metar Reports

Daily Weather History Graph

Daily Weather History Graph

Search for Another Location

Airport or City:

Trip Planner

Search our weather history database for the weather conditions in past years. The results will help you decide how hot, cold, wet, or windy it might be!

Date:

Astronomy

Mar. 06, 2014 Rise Set
Actual Time 6:44 AM PST 6:04 PM PST
Civil Twilight 6:12 AM PST 6:35 PM PST
Nautical Twilight 5:36 AM PST 7:12 PM PST
Astronomical Twilight 4:59 AM PST 7:49 PM PST
Moon 9:26 AM PST (3/6) No Moon Set
Length of Visible Light 12h 22m
Length of Day
11h 19m
Waxing Crescent, 33% of the Moon is Illuminated
Mar 6
Waxing Crescent
Mar 8
First Quarter
Mar 16
Full
Mar 23
Last Quarter
Mar 30
New

Hourly Weather History & Observations

Time (PST) Temp. Windchill Dew Point Humidity Pressure Visibility Wind Dir Wind Speed Gust Speed Precip Events Conditions
12:00 AM 46.4 °F 41.9 °F 44.6 °F 93% 29.40 in 15.0 mi East 9.2 mph - N/A   Overcast
12:14 AM 46.4 °F 41.5 °F 44.6 °F 93% 29.40 in 12.0 mi East 10.4 mph - N/A Rain Light Rain
12:31 AM 46.4 °F 41.9 °F 44.6 °F 93% 29.40 in 8.0 mi ENE 9.2 mph - N/A Rain Rain
12:40 AM 46.4 °F 41.1 °F 44.6 °F 93% 29.39 in 8.0 mi East 11.5 mph - N/A Rain Light Rain
12:55 AM 46.4 °F 40.4 °F 44.6 °F 93% 29.41 in 12.0 mi East 13.8 mph - N/A   Overcast
1:00 AM 46.4 °F 40.4 °F 44.6 °F 93% 29.42 in 12.0 mi East 13.8 mph - N/A   Overcast
1:25 AM 46.4 °F 40.7 °F 44.6 °F 93% 29.41 in 10.0 mi East 12.7 mph - N/A Rain Light Rain
2:00 AM 48.2 °F - 46.4 °F 93% 29.41 in 12.0 mi East 13.8 mph - N/A Rain Light Rain
2:42 AM 48.2 °F - 46.4 °F 93% 29.42 in 15.0 mi East 16.1 mph - N/A   Overcast
3:00 AM 48.2 °F - 46.4 °F 93% 29.43 in 15.0 mi East 15.0 mph - N/A   Overcast
4:00 AM 48 °F - 47 °F 93% 29.45 in 15 mi East 15.0 mph - -   Partly Cloudy
4:00 AM 48.2 °F - 46.4 °F 93% 29.44 in 15.0 mi East 15.0 mph - N/A   Overcast
4:33 AM 48.2 °F - 46.4 °F 93% 29.45 in 8.0 mi East 16.1 mph - N/A Rain Light Rain
4:56 AM 48.2 °F - 46.4 °F 93% 29.45 in 8.0 mi ESE 15.0 mph 21.9 mph N/A Rain Light Rain
5:00 AM 48.2 °F - 46.4 °F 93% 29.45 in 8.0 mi ESE 16.1 mph - N/A Rain Light Rain
6:00 AM 50.0 °F - 46.4 °F 87% 29.44 in 8.0 mi ESE 15.0 mph - N/A Rain Light Rain
6:29 AM 48.2 °F - 46.4 °F 93% 29.45 in 6.0 mi SE 15.0 mph - N/A Rain Rain
6:34 AM 48.2 °F - 46.4 °F 93% 29.45 in 5.0 mi SE 15.0 mph 20.7 mph N/A Rain Heavy Rain
7:00 AM 48.2 °F - 46.4 °F 93% 29.46 in 4.0 mi SE 13.8 mph 19.6 mph N/A Rain Heavy Rain
7:12 AM 48.2 °F - 46.4 °F 93% 29.46 in 6.0 mi SE 13.8 mph 21.9 mph N/A Rain Rain
7:36 AM 48.2 °F - 46.4 °F 93% 29.46 in 8.0 mi ESE 13.8 mph - N/A Rain Light Rain
8:00 AM 48.2 °F - 46.4 °F 93% 29.47 in 10.0 mi ESE 16.1 mph - N/A Rain Light Rain
9:00 AM 48.2 °F - 46.4 °F 93% 29.48 in 8.0 mi SE 17.3 mph 23.0 mph N/A Rain Rain
9:12 AM 48.2 °F - 46.4 °F 93% 29.49 in 10.0 mi SE 19.6 mph - N/A Rain Light Rain
10:00 AM 49 °F - 46 °F 84% 29.51 in 12 mi ESE 16.1 mph - - Rain Light Rain
10:00 AM 50.0 °F - 46.4 °F 87% 29.51 in 12.0 mi SE 16.1 mph - N/A Rain Light Rain
11:00 AM 50.0 °F - 46.4 °F 87% 29.53 in 15.0 mi ESE 15.0 mph 21.9 mph N/A Rain Light Rain
11:57 AM 50.0 °F - 46.4 °F 87% 29.56 in 6.0 mi East 13.8 mph - N/A Rain Light Rain
12:00 PM 50.0 °F - 46.4 °F 87% 29.56 in 6.0 mi ESE 15.0 mph - N/A Rain Light Rain
12:11 PM 50.0 °F - 46.4 °F 87% 29.56 in 8.0 mi East 13.8 mph - N/A Rain Light Rain
12:25 PM 48.2 °F - 46.4 °F 93% 29.57 in 6.0 mi East 13.8 mph - N/A Rain Light Rain
1:00 PM 50.0 °F - 48.2 °F 94% 29.58 in 6.0 mi East 13.8 mph - N/A Rain Light Rain
1:46 PM 50.0 °F - 48.2 °F 94% 29.60 in 8.0 mi ESE 12.7 mph - N/A Rain Light Rain
2:00 PM 50.0 °F - 48.2 °F 94% 29.61 in 8.0 mi SE 10.4 mph - N/A Rain Light Rain
3:00 PM 50.0 °F - 46.4 °F 87% 29.65 in 8.0 mi SE 9.2 mph - N/A Rain Light Rain
4:00 PM 50 °F - 45 °F 77% 29.69 in 15 mi SE 5.8 mph - - Rain Light Rain
4:00 PM 50.0 °F - 44.6 °F 82% 29.68 in 15.0 mi SE 5.8 mph - N/A Rain Light Rain
5:00 PM 48.2 °F - 42.8 °F 82% 29.74 in 12.0 mi SSW 9.2 mph - N/A Rain Light Rain
6:00 PM 48.2 °F - 42.8 °F 82% 29.78 in 12.0 mi South 13.8 mph 21.9 mph N/A Rain Light Rain
7:00 PM 48.2 °F - 42.8 °F 82% 29.83 in 10.0 mi South 13.8 mph - N/A Rain Light Rain
8:00 PM 48.2 °F - 42.8 °F 82% 29.87 in 12.0 mi SSE 10.4 mph - N/A Rain Light Rain
8:19 PM 48.2 °F - 42.8 °F 82% 29.88 in 12.0 mi SE 5.8 mph - N/A   Overcast
9:00 PM 48.2 °F - 42.8 °F 82% 29.91 in 15.0 mi East 6.9 mph - N/A   Overcast
10:00 PM 47 °F - 44 °F 86% 29.95 in 15 mi East 5.8 mph - -   Partly Cloudy
10:00 PM 46.4 °F 42.9 °F 44.6 °F 93% 29.95 in 15.0 mi ENE 6.9 mph - N/A   Overcast
11:00 PM 46.4 °F 42.4 °F 44.6 °F 93% 29.99 in 15.0 mi ENE 8.1 mph - N/A   Overcast